Orlando International, FL

5:32 AM EDT on March 23, 2017 (GMT -0400)
Orlando International

Weather History for KMCO - April, 2014

Change the Weather History Date:

Wednesday, April 23, 2014

  Actual Average Record
Temperature  
Mean Temperature 75 °F 72 °F  
Max Temperature 86 °F 84 °F 96 °F (1968)
Min Temperature 64 °F 61 °F 48 °F (1993)
Degree Days  
Heating Degree Days 0 0  
Month to date heating degree days 0 11  
Since 1 July heating degree days 406 569  
Cooling Degree Days 10 8  
Month to date cooling degree days 164 141  
Year to date cooling degree days 421 363  
Growing Degree Days 25 (Base 50)    
Moisture  
Dew Point 60 °F    
Average Humidity 62    
Maximum Humidity 87    
Minimum Humidity 37    
Precipitation  
Precipitation 0.00 in 0.08 in 3.75 in (1991)
Month to date precipitation 2.35 2.16  
Year to date precipitation 11.91 10.66  
Sea Level Pressure  
Sea Level Pressure 29.91 in    
Wind  
Wind Speed 5 mph (West)    
Max Wind Speed 14 mph    
Max Gust Speed 17 mph    
Visibility 10 miles    
Events      
T = Trace of Precipitation, MM = Missing Value Source: NWS Daily Summary

Daily Weather History Graph

Daily Weather History Graph

Search for Another Location

Airport or City:

Trip Planner

Search our weather history database for the weather conditions in past years. The results will help you decide how hot, cold, wet, or windy it might be!

Date:

Astronomy

Apr. 23, 2014 Rise Set
Actual Time 6:51 AM EDT 7:55 PM EDT
Civil Twilight 6:27 AM EDT 8:20 PM EDT
Nautical Twilight 5:58 AM EDT 8:49 PM EDT
Astronomical Twilight 5:28 AM EDT 9:19 PM EDT
Moon 2:52 AM EDT 2:30 PM EDT
Length of Visible Light 13h 52m
Length of Day
13h 03m
Waning Crescent, 35% of the Moon is Illuminated
Apr 23
Waning Crescent
Apr 29
New
May 6
First Quarter
May 14
Full
May 21
Last Quarter

Hourly Weather History & Observations

Time (EDT) Temp. Heat Index Dew Point Humidity Pressure Visibility Wind Dir Wind Speed Gust Speed Precip Events Conditions
12:53 AM 66.9 °F - 59.0 °F 76% 29.91 in 10.0 mi West 5.8 mph - N/A   Partly Cloudy
1:53 AM 64.9 °F - 59.0 °F 81% 29.91 in 10.0 mi West 3.5 mph - N/A   Partly Cloudy
2:53 AM 66.0 °F - 60.1 °F 81% 29.89 in 10.0 mi West 3.5 mph - N/A   Scattered Clouds
3:53 AM 64.9 °F - 60.1 °F 84% 29.88 in 10.0 mi WNW 4.6 mph - N/A   Partly Cloudy
4:53 AM 64.0 °F - 60.1 °F 87% 29.89 in 10.0 mi WNW 5.8 mph - N/A   Partly Cloudy
5:53 AM 64.0 °F - 61.0 °F 90% 29.90 in 10.0 mi West 5.8 mph - N/A   Partly Cloudy
6:53 AM 64.0 °F - 61.0 °F 90% 29.92 in 10.0 mi West 4.6 mph - N/A   Scattered Clouds
7:53 AM 66.0 °F - 62.1 °F 87% 29.94 in 10.0 mi WNW 4.6 mph - N/A   Partly Cloudy
8:53 AM 70.0 °F - 62.1 °F 76% 29.94 in 10.0 mi WNW 9.2 mph - N/A   Partly Cloudy
9:53 AM 72.0 °F - 61.0 °F 68% 29.96 in 10.0 mi NW 9.2 mph - N/A   Partly Cloudy
10:53 AM 75.9 °F - 61.0 °F 60% 29.96 in 10.0 mi WNW 9.2 mph - N/A   Partly Cloudy
11:53 AM 78.1 °F - 60.1 °F 54% 29.95 in 10.0 mi Variable 4.6 mph - N/A   Partly Cloudy
12:53 PM 80.1 °F 81.1 °F 61.0 °F 52% 29.93 in 10.0 mi SW 5.8 mph - N/A   Partly Cloudy
1:53 PM 82.9 °F 83.2 °F 60.1 °F 46% 29.92 in 10.0 mi Variable 3.5 mph - N/A   Partly Cloudy
2:53 PM 84.0 °F 83.5 °F 57.9 °F 41% 29.90 in 10.0 mi Variable 4.6 mph - N/A   Partly Cloudy
3:53 PM 84.2 °F 83.5 °F 57.2 °F 40% 29.88 in 10.0 mi Calm Calm - N/A   Partly Cloudy
4:53 PM 84.0 °F 83.3 °F 57.0 °F 40% 29.87 in 10.0 mi WSW 6.9 mph - N/A   Scattered Clouds
5:53 PM 84.0 °F 83.0 °F 55.9 °F 38% 29.86 in 10.0 mi Calm Calm - N/A   Partly Cloudy
6:53 PM 84.0 °F 83.0 °F 55.9 °F 38% 29.87 in 10.0 mi WNW 5.8 mph - N/A   Scattered Clouds
7:53 PM 80.1 °F 80.6 °F 57.9 °F 47% 29.89 in 10.0 mi SW 4.6 mph - N/A   Scattered Clouds
8:53 PM 75.0 °F - 63.0 °F 66% 29.91 in 10.0 mi East 11.5 mph - N/A   Mostly Cloudy
9:53 PM 73.0 °F - 62.1 °F 68% 29.94 in 10.0 mi ESE 8.1 mph - N/A   Partly Cloudy
10:53 PM 73.0 °F - 62.1 °F 68% 29.96 in 10.0 mi Calm Calm - N/A   Scattered Clouds
11:53 PM 72.0 °F - 62.1 °F 71% 29.96 in 10.0 mi Calm Calm - N/A   Clear